DMSP 5D-2 F13 DEB

基本信息
目录编号:
42317
目录名称:
DMSP 5D-2 F13 DEB
国际标识:
1995-015JK
轨道中心:
EARTH
物体状态:
已陨落(2025-03-18)
发射日期:
1995-03-24 UTC
轨道信息
数据来源: 国际轨道数据
星历时间: 2025-02-22T03:15:07+0800
半长轴: 6858.945km
偏心率: 0.0013719
轨道倾角: 98.714°
近地点辐角: 286.507°
升交点赤经: 156.173°
平近点角: 73.465°
近地点: 471.4km
远地点: 490.22km
周期: 94.221分钟
每日圈数: 15.283289
详细信息
发射场:
AFWTR
轨道高度:
LEO
数据来源:
AOE Integration Group
参考系:
TEME
时间系统:
UTC
历元类型:
SGP4
2D轨道图
3D轨道图
轨道高度分析图
轨道倾角分析图
轨道综合分析图
查看轨道综合分析图